Vorticity
3 2 4 3 6 11 12 10 4 4 5 10 17 10 3 3 2 2 4 3 4 5 4 6 4 5 7 8 5 7 9 3 10 3 10 14 11 9 7 5 5 6 6 5 4 5 5 4 4
5 2 3 3 3 6 7 2 1 2 5 9 9 5 5 2 4 3 5 4 4 6 6 7 4 5 7 5 6 8 8 6 7 10 8 8 13 11 8 5 5 5 4 3 4 5 8 9 6
6 3 1 3 3 5 5 9 6 5 13 13 8 9 6 7 6 2 1 3 4 6 7 5 4 7 6 4 5 5 9 2 4 8 5 5 13 17 11 5 3 3 3 3 5 5 4 4 4
1 7 3 1 3 3 4 9 14 8 3 8 7 4 6 7 8 7 7 7 7 8 9 8 6 7 3 4 5 6 4 10 7 6 6 4 4 5 15 9 4 2 2 3 4 3 3 5 6
17 5 8 1 4 5 8 5 9 9 5 11 5 4 6 6 7 5 5 5 6 9 13 5 6 7 4 3 5 7 6 3 6 6 7 6 5 0 4 6 10 9 8 8 8 9 9 7 6
7 16 -0 7 1 3 2 2 6 11 5 7 6 5 5 4 4 4 6 7 10 12 14 4 8 5 4 2 5 4 6 7 9 9 7 7 8 7 6 3 3 3 3 3 3 4 6 8 6
2 4 19 2 6 4 3 2 6 8 9 7 9 3 5 6 6 5 3 4 9 14 9 7 9 4 3 4 5 4 5 7 7 8 10 11 10 8 7 8 8 6 5 4 4 4 4 4 6
10 2 7 8 6 5 4 4 4 5 7 9 6 6 3 4 3 7 6 8 10 16 4 4 8 2 4 3 6 4 7 5 4 5 7 7 7 11 13 13 11 11 10 9 7 7 7 6 5
10 8 10 20 -1 5 7 5 -2 3 7 10 11 6 2 4 5 2 -1 2 8 17 9 3 8 2 4 3 4 8 4 0 0 1 2 3 3 7 8 9 11 13 14 13 12 10 9 8 7
8 8 14 -0 16 1 4 3 2 2 6 8 8 11 4 3 3 2 2 4 8 10 15 2 7 2 1 3 0 8 2 2 1 -1 -0 -2 1 3 4 5 5 5 5 6 7 7 7 7 6
6 5 8 13 -2 13 3 5 3 -1 6 5 8 7 8 5 9 4 10 4 8 11 17 5 9 6 1 5 3 4 3 1 1 4 -1 -3 0 2 3 5 6 4 3 4 4 6 6 7 7
11 5 6 11 11 -1 13 3 6 -2 2 6 5 12 4 8 7 9 2 4 12 7 9 4 8 8 4 5 2 -1 1 1 3 5 -0 5 -3 4 3 5 5 4 6 4 3 4 3 2 3
4 4 6 7 11 6 3 14 1 5 2 4 4 5 11 4 9 14 1 3 11 10 8 8 9 9 7 5 2 -2 -2 3 9 7 0 8 6 3 2 7 6 9 5 3 4 7 7 8 9
5 9 8 6 6 10 4 3 14 0 5 3 5 4 12 7 6 14 6 6 6 10 9 9 7 12 8 6 2 5 5 -2 3 4 6 7 16 14 3 11 8 5 5 7 10 13 15 14 13
13 5 5 6 6 7 9 4 7 1 3 5 3 6 9 10 5 11 5 5 10 6 11 7 9 7 9 6 4 4 1 4 6 8 3 13 16 11 17 8 6 7 6 9 13 12 10 9 7
9 8 3 3 8 7 11 -2 13 13 3 1 3 5 7 14 2 10 8 3 8 7 11 11 9 9 4 6 7 6 5 5 3 -0 9 17 10 9 6 6 5 7 10 11 9 7 7 7 7
6 6 6 5 9 8 14 2 9 8 10 1 0 3 6 11 13 1 8 4 3 8 14 7 6 6 9 9 1 3 5 4 6 12 13 8 5 7 6 5 6 4 8 10 11 11 11 9 7
13 21 16 8 11 11 5 6 13 1 13 6 2 6 8 5 14 8 5 6 5 8 15 6 1 7 6 5 3 -1 3 6 8 15 6 4 5 2 7 5 3 5 10 12 8 6 6 6 7
14 13 12 16 10 10 11 6 13 4 7 11 5 5 8 7 3 15 5 8 3 9 12 10 0 5 4 1 1 2 2 8 13 8 0 6 -1 6 3 3 5 12 11 9 7 7 8 9 7
12 11 12 12 15 18 1 9 2 14 4 9 7 5 7 6 4 8 11 6 5 8 9 12 5 2 1 1 3 1 -2 6 5 7 5 -1 10 5 6 7 11 9 9 7 8 8 6 6 4
13 12 17 18 15 13 10 3 16 7 7 6 5 5 6 8 8 5 17 4 6 6 10 11 6 4 1 2 3 3 15 15 9 8 5 7 5 5 7 5 10 11 11 10 6 5 3 4 6
10 17 17 16 10 14 11 18 11 12 4 6 7 4 8 7 7 7 12 8 8 6 9 9 5 4 3 4 4 7 11 8 5 4 4 6 6 7 9 14 10 9 7 5 5 3 4 4 4
15 18 11 14 17 9 8 7 16 14 12 4 7 3 8 9 7 9 9 7 4 7 8 11 6 5 4 2 2 3 2 2 4 7 10 9 7 10 12 9 8 6 5 4 5 6 6 7 5
17 6 20 14 16 12 -0 -2 13 3 7 13 6 5 10 8 7 11 7 8 4 7 6 9 6 5 2 2 2 3 3 7 8 9 6 7 12 11 8 8 6 4 5 6 5 6 5 4 6
16 0 15 3 4 2 -15 -24 33 13 9 14 9 6 8 9 8 13 8 9 3 8 8 7 5 3 2 1 3 1 6 9 8 7 9 12 7 8 7 5 5 6 5 5 5 3 5 5 6
17 10 11 4 7 -11 7 -27 5 13 -16 7 9 1 7 13 11 11 9 12 5 9 9 7 5 4 3 3 3 9 9 7 8 11 9 6 8 7 5 6 5 5 6 3 3 4 5 6 9
27 19 3 16 14 0 -4 48 28 15 36 19 3 11 11 9 11 11 9 10 7 9 8 6 4 4 5 4 9 7 8 8 13 7 7 8 7 5 4 4 6 4 2 4 4 5 10 13 12
27 29 10 4 17 28 10 39 -14 -6 3 6 4 5 8 16 10 14 14 12 4 7 8 8 8 8 7 7 8 6 10 11 6 7 9 7 4 5 5 3 3 3 5 4 7 12 13 15 9
18 46 2 20 -27 76 26 1 16 18 14 7 6 11 8 11 8 12 10 10 8 6 6 6 6 7 6 6 7 11 10 6 7 8 7 5 5 3 3 3 3 4 4 8 12 15 12 4 1
-17 35 21 -40 4 13 7 18 4 -2 -1 5 10 8 7 7 10 8 8 6 5 7 10 8 6 4 7 9 13 8 5 7 9 6 7 4 2 3 3 2 3 4 6 13 18 9 1 1 0
Height
5834 5835 5836 5839 5843 5842 5843 5844 5842 5842 5847 5851 5852 5852 5850 5851 5853 5855 5855 5857 5857 5859 5859 5860 5860 5860 5859 5858 5857 5856 5855 5855 5855 5855 5855 5854 5854 5854 5854 5854 5855 5855 5855 5855 5856 5856 5856 5856 5855
5828 5830 5832 5834 5836 5837 5837 5837 5837 5842 5847 5848 5847 5848 5845 5846 5850 5850 5851 5854 5855 5855 5856 5857 5858 5857 5857 5855 5855 5854 5853 5852 5853 5852 5852 5852 5851 5851 5851 5851 5851 5852 5852 5852 5852 5852 5852 5851 5851
5822 5825 5827 5829 5831 5833 5833 5835 5836 5841 5841 5843 5843 5844 5842 5843 5848 5846 5847 5850 5851 5851 5854 5855 5855 5855 5854 5853 5852 5852 5851 5851 5850 5849 5849 5849 5848 5848 5848 5848 5848 5848 5848 5848 5848 5848 5847 5846 5845
5816 5819 5823 5825 5827 5828 5829 5830 5833 5836 5836 5838 5840 5839 5839 5840 5844 5844 5844 5846 5848 5849 5849 5851 5852 5852 5851 5850 5850 5850 5849 5848 5848 5847 5846 5846 5845 5845 5844 5843 5843 5843 5843 5842 5842 5841 5841 5840 5839
5809 5812 5816 5820 5822 5823 5825 5825 5828 5831 5832 5833 5835 5834 5837 5837 5839 5839 5841 5842 5844 5845 5847 5848 5848 5848 5848 5848 5848 5848 5847 5846 5845 5844 5843 5843 5842 5842 5841 5840 5839 5838 5838 5837 5836 5835 5835 5834 5833
5801 5805 5810 5815 5817 5817 5819 5820 5823 5826 5826 5829 5831 5830 5834 5834 5834 5835 5836 5839 5840 5840 5842 5843 5844 5844 5844 5845 5846 5846 5845 5843 5842 5841 5840 5839 5838 5837 5837 5836 5835 5834 5834 5833 5832 5831 5830 5829 5828
5796 5798 5803 5807 5811 5811 5814 5817 5819 5820 5823 5825 5828 5828 5829 5830 5832 5832 5832 5833 5837 5837 5837 5839 5840 5840 5840 5842 5843 5842 5842 5840 5839 5838 5837 5836 5834 5834 5833 5832 5831 5830 5829 5828 5827 5826 5825 5824 5823
5788 5789 5795 5800 5805 5808 5808 5811 5816 5816 5818 5820 5824 5824 5824 5827 5828 5828 5829 5829 5832 5833 5834 5834 5836 5836 5837 5838 5839 5839 5838 5837 5836 5835 5834 5833 5831 5830 5829 5828 5826 5825 5824 5823 5821 5821 5820 5819 5818
5780 5783 5789 5795 5799 5803 5801 5803 5808 5811 5814 5816 5819 5821 5815 5820 5821 5823 5825 5826 5826 5828 5830 5830 5831 5832 5834 5834 5835 5835 5835 5834 5833 5832 5831 5829 5829 5827 5825 5823 5822 5820 5819 5817 5816 5815 5814 5812 5811
5773 5777 5783 5789 5791 5794 5794 5795 5801 5807 5810 5811 5814 5816 5808 5814 5816 5822 5821 5821 5823 5823 5825 5827 5827 5827 5830 5830 5831 5831 5831 5830 5829 5828 5827 5826 5825 5823 5821 5819 5818 5816 5815 5813 5811 5810 5808 5806 5805
5768 5772 5775 5781 5784 5786 5787 5787 5794 5800 5804 5805 5807 5809 5805 5808 5814 5818 5818 5818 5818 5819 5820 5821 5824 5825 5826 5826 5827 5827 5826 5826 5825 5823 5822 5822 5821 5819 5818 5816 5815 5812 5810 5808 5806 5804 5802 5800 5798
5760 5763 5766 5772 5775 5778 5781 5781 5788 5793 5799 5799 5801 5803 5803 5803 5809 5811 5810 5813 5815 5815 5816 5817 5819 5820 5821 5822 5823 5823 5821 5821 5820 5819 5819 5817 5815 5813 5812 5811 5808 5806 5804 5802 5799 5797 5795 5792 5790
5752 5755 5758 5765 5767 5770 5772 5774 5781 5785 5791 5793 5794 5795 5798 5798 5802 5804 5805 5808 5810 5812 5814 5813 5814 5814 5816 5817 5818 5818 5818 5816 5816 5814 5814 5811 5809 5807 5806 5804 5802 5800 5798 5796 5793 5790 5787 5784 5782
5743 5746 5751 5755 5759 5761 5762 5766 5771 5781 5783 5786 5788 5789 5793 5795 5797 5799 5800 5803 5804 5807 5809 5809 5808 5810 5812 5813 5812 5812 5812 5811 5810 5810 5808 5805 5803 5801 5799 5797 5796 5794 5792 5788 5786 5783 5779 5776 5774
5734 5738 5743 5748 5751 5754 5753 5755 5763 5776 5775 5778 5779 5783 5787 5789 5790 5792 5795 5797 5799 5799 5802 5803 5804 5806 5807 5807 5807 5807 5807 5806 5805 5804 5802 5799 5796 5794 5793 5791 5789 5787 5784 5781 5778 5775 5772 5770 5767
5724 5728 5733 5737 5741 5747 5743 5750 5757 5765 5766 5769 5774 5777 5781 5782 5785 5788 5790 5792 5793 5794 5796 5798 5799 5801 5802 5802 5802 5803 5801 5801 5799 5797 5794 5792 5790 5789 5787 5785 5782 5780 5777 5774 5771 5768 5765 5763 5760
5710 5714 5719 5726 5731 5732 5733 5743 5751 5757 5757 5761 5766 5770 5773 5776 5779 5782 5783 5787 5786 5789 5790 5792 5793 5795 5797 5798 5798 5797 5797 5795 5792 5790 5788 5787 5785 5783 5781 5778 5776 5773 5769 5766 5762 5759 5757 5755 5753
5695 5702 5708 5717 5724 5721 5725 5733 5742 5749 5747 5754 5761 5762 5767 5771 5772 5775 5778 5781 5781 5783 5785 5787 5788 5790 5792 5792 5792 5791 5791 5789 5787 5784 5783 5781 5779 5777 5775 5771 5768 5764 5760 5757 5754 5751 5747 5745 5743
5683 5688 5694 5704 5710 5711 5719 5724 5733 5740 5739 5746 5753 5755 5760 5766 5766 5769 5772 5775 5776 5777 5779 5781 5782 5785 5786 5786 5786 5785 5784 5782 5780 5778 5777 5775 5773 5770 5767 5763 5759 5755 5751 5748 5745 5742 5738 5734 5731
5668 5674 5685 5692 5697 5701 5708 5713 5724 5728 5732 5739 5745 5746 5754 5759 5759 5763 5766 5769 5770 5772 5774 5775 5777 5779 5780 5780 5779 5778 5777 5775 5774 5772 5771 5769 5766 5762 5758 5755 5751 5747 5742 5739 5735 5732 5728 5724 5719
5657 5663 5675 5681 5686 5691 5697 5701 5711 5719 5725 5730 5736 5738 5747 5751 5752 5757 5759 5763 5764 5766 5768 5770 5771 5773 5774 5774 5773 5772 5770 5768 5767 5765 5763 5761 5757 5753 5750 5746 5741 5738 5734 5730 5725 5721 5718 5714 5707
5646 5659 5665 5671 5675 5682 5687 5690 5701 5711 5718 5722 5728 5731 5741 5745 5745 5750 5753 5756 5758 5760 5762 5763 5765 5767 5768 5768 5767 5765 5763 5761 5760 5758 5755 5752 5748 5745 5741 5736 5732 5728 5724 5720 5715 5711 5706 5701 5696
5646 5646 5654 5660 5666 5672 5678 5682 5692 5701 5705 5711 5720 5726 5734 5739 5739 5744 5747 5750 5752 5754 5755 5756 5758 5760 5761 5761 5760 5758 5756 5755 5753 5750 5747 5743 5739 5735 5731 5727 5723 5719 5715 5710 5705 5700 5694 5688 5683
5632 5638 5644 5651 5656 5657 5670 5673 5680 5691 5700 5710 5713 5720 5729 5732 5733 5737 5741 5745 5746 5747 5748 5749 5751 5752 5753 5753 5752 5751 5749 5747 5744 5741 5738 5735 5731 5726 5723 5718 5714 5710 5706 5700 5695 5689 5683 5676 5669
5613 5625 5633 5640 5643 5649 5663 5666 5674 5685 5692 5702 5708 5715 5722 5724 5727 5731 5735 5738 5739 5740 5742 5743 5745 5746 5747 5746 5745 5743 5740 5738 5735 5732 5729 5725 5722 5718 5714 5709 5704 5700 5695 5690 5684 5677 5670 5662 5654
5608 5617 5624 5632 5636 5650 5656 5656 5671 5679 5689 5695 5703 5709 5714 5718 5721 5725 5727 5731 5733 5734 5735 5736 5738 5738 5738 5737 5736 5734 5731 5729 5726 5723 5719 5716 5713 5708 5704 5700 5695 5690 5684 5678 5671 5663 5655 5647 5637
5598 5601 5629 5628 5636 5645 5653 5655 5667 5672 5681 5690 5699 5704 5709 5711 5714 5717 5721 5724 5726 5727 5728 5730 5731 5731 5730 5728 5727 5725 5723 5720 5717 5714 5711 5707 5703 5699 5694 5689 5683 5678 5671 5664 5657 5648 5640 5631 5621
5585 5609 5616 5622 5636 5638 5646 5650 5661 5670 5680 5688 5695 5699 5702 5705 5709 5712 5715 5718 5720 5721 5722 5723 5723 5723 5722 5720 5718 5717 5715 5711 5709 5706 5702 5698 5694 5689 5684 5678 5671 5665 5657 5650 5641 5633 5623 5614 5604
5586 5598 5610 5622 5624 5638 5646 5651 5658 5670 5678 5685 5689 5693 5696 5700 5703 5706 5709 5711 5713 5714 5716 5716 5716 5715 5714 5712 5711 5708 5706 5704 5700 5697 5693 5688 5684 5678 5673 5666 5659 5651 5643 5634 5625 5616 5607 5598 5588
5587 5599 5605 5614 5623 5625 5646 5653 5657 5666 5673 5680 5685 5688 5691 5694 5697 5700 5703 5705 5706 5708 5709 5709 5709 5707 5706 5704 5703 5700 5698 5696 5692 5688 5683 5678 5673 5668 5661 5654 5646 5637 5628 5618 5609 5601 5591 5582 5571